COSMOS 2355

Satellite information

Favourite Embed

Satellite Type and Status

PAYLOADIN ORBIT

Key statistics

Satellite COSMOS 2355 at a glance.

Uptime

10048

Days in orbit

Revolutions

≈ 12.2

Per day

Orbit

LEO

Low Earth Orbit

Inclination

82.6

Latest

Satellite identification and parameters

Extended collection of information and parameters for COSMOS 2355.

Object identification

Identified? True

Debris? False

Object name: COSMOS 2355

International designator: 1998-036D

Object number (NORAD): 25366

Object ID (CCSDS): 25366

Country: COMMONWEALTH OF INDEPENDENT STATES (CIS)

Current information (Y/N): Y

RCS size: MEDIUM

Orbital parameters

Period: 117.857 minutes

Inclination: 82.5885 deg

SMA: 7962.765 km

Apoapsis: 1866.023 km

Periapsis: 1303.236 km

RAAN: 88.9015 deg

Eccentricy: 0.03533867

Argument of periapsis: 219.2502 deg

Mean anomaly: 269.2124 deg

Mean motion: 12.21819158 rev/day

Mean motion (dot): 0.00000009 rev/day2

B* drag term: 0.000003123624 1/REarth

Two-line elements (TLE)

Creation date: Dec. 17, 2025, 2:25 a.m.

Reference frame: TEME

Reference center: EARTH

Epoch: Dec. 16, 2025, 7:53 p.m. UTC

TLE line 0: 0 COSMOS 2355

TLE line 1: 1 25366U 98036D 25350.82891821 .00000009 00000-0 31236-5 0 9991

TLE line 2: 2 25366 82.5885 88.9015 0353387 219.2502 269.2124 12.21819158226757

Live tracking on map

Real-time ground track for satellite COSMOS 2355.

In-orbit conjunctions

There are no conjunctions computed for COSMOS 2355, at the moment. Check back to stay up to date, as we update our databases every day.

Go to all conjunctions

Associated space launch

Second generation store-dump military communications satellites

COSMOS 2355 was lifted into orbit during the mission ‘Tsiklon-3 | Strela-3 119 to 124’, on board a Tsiklon-3 space rocket.

The launch took place on June 15, 1998, 10:58 p.m. from 32/1.

For more information about the launch, click the button.

Launch to space Tsiklon-3 | Strela-3 119 to 124
Tsiklon-3 | Strela-3 119 to 124

Agency: N/A

Status: Launch Successful

Launch date: June 15, 1998, 10:58 p.m. UTC

Rocket: Tsiklon-3

Launch pad: 32/1

Location: Plesetsk Cosmodrome, Russian Federation

...

Latest news about this satellite

There are no fresh news available about this satellite. Check back as we update our databases every day.


Newsletter sign-up

Weekly statistics, charts and insights to help you stay on top of the space industry.